Погода в Уртазыме

Россия / Оренбургская область     52°12′13″N   58°50′33″E
темп.,
°C
ветер,
м/с
пор.,
м/с
влажн.,
%
обл.,
%
осадки,
мм/ч
давл.,
гПа
погр.,
м
25 июля, вс
вс2523:00+18с11800 0.2 100811
02:00+16ссз22826 0.0 100911
05:00+16зсз22689 0.0 101016
08:00+20сз235625 0.0 1011178
11:00+24сз35426 0.0 10121737
14:00+21ссз584877 0.0 1013350
17:00+25ссз6636100 0.0 10131835
20:00+21ссв465346 0.0 1015247
26 июля, пн
пн2623:00+17с23670 0.0 101727
02:00+14с36680 0.0 1018104
05:00+12с36640 0.0 1019117
08:00+15ссв45630 0.0 1020313
11:00+19с32510 0.0 10201036
14:00+22ссз33370 0.0 10192008
17:00+23всв24317 0.0 10182453
20:00+19в46475 0.0 1018146
27 июля, вт
вт2723:00+16с22515 0.0 101922
02:00+13ссв476129 0.0 1019127
05:00+14св3456100 0.0 1019104
08:00+16ссв225164 0.0 1019198
11:00+21сз233513 0.0 10181506
14:00+23з342844 0.0 10162755
17:00+24ссз3429100 0.0 10142256
20:00+21с224426 0.0 101434
28 июля, ср
ср2823:00+18з004580 0.0 101411
02:00+15з335146 0.0 101322
05:00+15з345659 0.0 101370
08:00+18з465394 0.0 1012274
11:00+20сз464934 0.0 10121448
14:00+22ссз564618 0.3 10121692
17:00+24с45309 0.3 10112665
20:00+20всв34404 0.0 101369
29 июля, чт
чт2923:00+15св33533 0.0 101434
02:00+13ссв22600 0.0 101519
05:00+12юз11640 0.0 101410
08:00+16юз34525 0.0 1015271
11:00+22зюз55375 0.0 10141587
14:00+25зюз46272 0.0 10122291
17:00+26з45236 0.0 10102548
20:00+23зюз3435100 0.0 101048